Retour au catalogue

NIMIQ 2

ActifCommunicationsGEO
NORAD 27632·PAYLOAD·🇨🇦 Canada

Lancé Dec 29, 2002 depuis Baikonur Cosmodrome

Loading…

TLE

FraisSource: CelesTrak SupGP

Époque: Sep 14, 2026, 06:00 UTC

1 27632C 02062A   26257.25000000  .00000027  00000+0  00000+0 0  2573
2 27632   9.6479  55.9283 0005719 112.5067 165.5795  1.00272363    16

Suivez NIMIQ 2 en temps réel avec AllMySat

Download on the App Store